Simultaneous Nadir Overpasses (SNOs) Predictions

Prediction of SNOs between METOP-A and NOAA-19 Satellite Orbit:

Table of predicted SNOs for the next 14.0 days since TLE Epoch: 9/6/2015
Index Date (METOP-A) Time (METOP-A) Lat,Lon (METOP-A) SZA (METOP-A ) Date (NOAA-19) Time (NOAA-19) Lat,Lon (NOAA-19) SZA (NOAA-19 ) Distance(km) Time Diff (sec)
1 09/08/2015 12:24:47 75.38, -8.49 69.61 09/08/2015 12:23:33 75.41, -8.75 69.65 7.94 74
2 09/08/2015 13:15:30 -75.32, 158.64 110.44 09/08/2015 13:14:35 -75.33, 158.74 110.43 2.91 55
3 09/08/2015 14:06:10 75.32, -34.04 69.57 09/08/2015 14:05:34 75.34, -34.04 69.60 2.75 36
4 09/08/2015 14:56:52 -75.30, 133.24 110.44 09/08/2015 14:56:37 -75.30, 133.31 110.43 2.01 15
5 09/08/2015 15:47:32 75.29, -59.44 69.58 09/08/2015 15:47:36 75.32, -59.47 69.60 2.58 4
6 09/08/2015 16:38:14 -75.28, 107.84 110.43 09/08/2015 16:38:39 -75.28, 107.87 110.43 1.09 25
7 09/08/2015 17:28:54 75.27, -84.84 69.58 09/08/2015 17:29:38 75.29, -84.90 69.60 2.71 44
8 09/08/2015 18:19:36 -75.26, 82.44 110.42 09/08/2015 18:20:41 -75.26, 82.44 110.42 0.19 65
9 09/08/2015 19:10:24 74.87,-111.34 69.22 09/08/2015 19:11:32 74.89,-109.20 69.22 62.16 68
10 09/19/2015 00:57:55 -75.39, -16.78 106.36 09/19/2015 00:56:43 -75.40, -16.83 106.35 1.56 72
11 09/19/2015 01:48:35 75.39, 150.53 73.65 09/19/2015 01:47:44 75.40, 150.43 73.66 2.90 51
12 09/19/2015 02:39:17 -75.37, -42.19 106.36 09/19/2015 02:38:45 -75.38, -42.27 106.35 2.32 32
13 09/19/2015 03:29:56 75.36, 125.12 73.65 09/19/2015 03:29:45 75.37, 125.00 73.66 3.60 11
14 09/19/2015 04:20:38 -75.35, -67.59 106.35 09/19/2015 04:20:46 -75.36, -67.70 106.35 3.16 8
15 09/19/2015 05:11:19 75.29, 99.58 73.61 09/19/2015 05:11:46 75.30, 99.71 73.62 3.91 27
16 09/19/2015 06:02:00 -75.33, -93.00 106.35 09/19/2015 06:02:48 -75.33, -93.14 106.34 4.05 48
17 09/19/2015 06:52:41 75.27, 74.17 73.62 09/19/2015 06:53:48 75.28, 74.28 73.62 3.02 67
18 09/19/2015 07:43:33 -74.78,-119.90 106.86 09/19/2015 07:44:39 -74.80,-117.02 106.85 83.97 66




NCC Satellite Simultaneous Nadir Overpasses (SNOs) Prediction Service
